Simultaneous Nadir Overpasses (SNOs) Predictions

Prediction of SNOs between AQUA and NPP Satellite Orbit:

Table of predicted SNOs for the next 14.0 days since TLE Epoch: 8/4/2017
Index Date (AQUA) Time (AQUA) Lat,Lon (AQUA) SZA (AQUA ) Date (NPP) Time (NPP) Lat,Lon (NPP) SZA (NPP ) Distance(km) Time Diff (sec)
1 08/07/2017 05:32:32 -74.12, 150.98 96.35 08/07/2017 05:31:27 -74.12, 150.96 96.29 0.67 65
2 08/07/2017 06:21:30 75.50, -37.87 82.10 08/07/2017 06:21:42 75.50, -37.88 82.09 0.17 12
3 08/09/2017 21:48:50 -74.64, -91.92 96.20 08/09/2017 21:48:13 -74.63, -91.93 96.16 0.58 37
4 08/09/2017 22:37:49 75.94, 79.32 82.32 08/09/2017 22:38:29 75.94, 79.33 82.28 0.17 40
5 08/12/2017 14:05:08 -75.19, 25.39 96.07 08/12/2017 14:04:59 -75.19, 25.39 96.06 0.13 9
6 08/12/2017 14:54:10 76.33,-163.58 82.62 08/12/2017 14:55:18 76.33,-163.55 82.56 0.80 68
7 08/15/2017 05:32:24 74.42, -28.32 85.57 08/15/2017 05:31:26 74.43, -28.27 85.61 1.61 58
8 08/15/2017 06:21:26 -75.72, 142.78 95.90 08/15/2017 06:21:45 -75.73, 142.83 95.93 1.38 19
9 08/17/2017 21:48:41 75.02, 89.06 85.70 08/17/2017 21:48:11 75.03, 89.15 85.70 2.81 30




NCC Satellite Simultaneous Nadir Overpasses (SNOs) Prediction Service
